Location: Dover
(48.8500°N, 53.9833°W)
Time: 06:10:58
(UTC+00:00)

Cosmos 1269 Rocket - Pass Details

Date: 14 November 2025
Orbit: 768 x 775 km, 74.1° (Epoch: 16 December)

Event Time Altitude Azimuth Distance (km) Brightness Sun altitude
Rises 21:13:13 0° 200° (SSW) 3,226 7.7 -12.6°
Reaches altitude 10° 21:15:34 10° 200° (SSW) 2,305 6.9 -13.0°
Maximum altitude 21:20:49 88° 113° (ESE) 778 4.0 -13.9°
Drops below altitude 10° 21:26:07 10° 24° (NNE) 2,325 6.2 -14.7°
Enters shadow 21:27:14 - 24° (NNE) 2,760 6.5 -14.9°
